• In Belarus
  • List of Countries
  • For 7 days
  • Water Temperature
  • Satellite Maps
  • Weather Map
  • Weather Widgets
  • user-avatar
    Login

    Hourly Weather Amar

    Today, 16 August, Thursday

    Time Temperature Precipitation Wind Pressure Humidity
    00:00 +37°C° 0 mm 4 mps 747 mmHg 31%
    01:00 +37°C° 0 mm 4 mps 746 mmHg 31%
    02:00 +37°C° 0 mm 4 mps 746 mmHg 31%
    03:00 +36°C° 0 mm 4 mps 746 mmHg 29%
    04:00 +37°C° 0 mm 4 mps 747 mmHg 28%
    05:00 +37°C° 0 mm 4 mps 747 mmHg 27%
    06:00 +37°C° 0 mm 4 mps 747 mmHg 26%
    07:00 +40°C° 0 mm 4 mps 747 mmHg 22%
    08:00 +42°C° 0 mm 5 mps 747 mmHg 18%
    09:00 +45°C° 0 mm 5 mps 747 mmHg 11%
    10:00 +46°C° 0 mm 5 mps 747 mmHg 11%
    11:00 +47°C° 0 mm 5 mps 747 mmHg 10%
    12:00 +48°C° 0 mm 5 mps 747 mmHg 10%
    13:00 +48°C° 0 mm 5 mps 747 mmHg 12%
    14:00 +48°C° 0 mm 5 mps 747 mmHg 13%
    15:00 +47°C° 0 mm 6 mps 746 mmHg 14%
    16:00 +46°C° 0 mm 6 mps 746 mmHg 17%
    17:00 +43°C° 0 mm 5 mps 746 mmHg 21%
    18:00 +42°C° 0 mm 5 mps 746 mmHg 24%
    19:00 +41°C° 0 mm 4 mps 746 mmHg 26%
    20:00 +40°C° 0 mm 4 mps 747 mmHg 29%
    21:00 +38°C° 0 mm 3 mps 747 mmHg 31%
    22:00 +38°C° 0 mm 3 mps 747 mmHg 30%
    23:00 +38°C° 0 mm 3 mps 747 mmHg 29%

    Tomorrow, 17 August, Friday

    Time Temperature Precipitation Wind Pressure Humidity
    00:00 +37°C° 0 mm 3 mps 746 mmHg 28%
    01:00 +37°C° 0 mm 3 mps 746 mmHg 27%
    02:00 +37°C° 0 mm 4 mps 746 mmHg 26%
    03:00 +37°C° 0 mm 4 mps 746 mmHg 26%
    04:00 +37°C° 0 mm 4 mps 746 mmHg 25%
    05:00 +37°C° 0 mm 4 mps 746 mmHg 24%
    06:00 +37°C° 0 mm 5 mps 746 mmHg 23%
    07:00 +40°C° 0 mm 5 mps 746 mmHg 20%
    08:00 +42°C° 0 mm 5 mps 747 mmHg 17%
    09:00 +45°C° 0 mm 5 mps 747 mmHg 14%
    10:00 +46°C° 0 mm 6 mps 747 mmHg 14%
    11:00 +47°C° 0 mm 6 mps 746 mmHg 15%
    12:00 +48°C° 0 mm 6 mps 746 mmHg 15%
    13:00 +48°C° 0 mm 6 mps 746 mmHg 16%
    14:00 +48°C° 0 mm 6 mps 745 mmHg 16%
    15:00 +47°C° 0 mm 7 mps 745 mmHg 17%
    16:00 +46°C° 0 mm 6 mps 745 mmHg 21%
    17:00 +44°C° 0 mm 6 mps 744 mmHg 25%
    18:00 +42°C° 0 mm 5 mps 744 mmHg 28%
    19:00 +41°C° 0 mm 4 mps 745 mmHg 31%
    20:00 +40°C° 0 mm 4 mps 745 mmHg 34%
    21:00 +38°C° 0 mm 3 mps 745 mmHg 37%
    22:00 +38°C° 0 mm 3 mps 745 mmHg 36%
    23:00 +37°C° 0 mm 2 mps 745 mmHg 34%

    Day after tomorrow, 18 August, Saturday

    Time Temperature Precipitation Wind Pressure Humidity
    00:00 +37°C° 0 mm 2 mps 744 mmHg 33%
    01:00 +37°C° 0 mm 2 mps 744 mmHg 32%
    02:00 +37°C° 0 mm 3 mps 744 mmHg 31%
    03:00 +37°C° 0 mm 3 mps 744 mmHg 29%
    04:00 +37°C° 0 mm 4 mps 744 mmHg 28%
    05:00 +37°C° 0 mm 4 mps 744 mmHg 27%
    06:00 +37°C° 0 mm 5 mps 744 mmHg 26%
    07:00 +40°C° 0 mm 6 mps 745 mmHg 25%
    08:00 +43°C° 0 mm 7 mps 745 mmHg 23%
    09:00 +45°C° 0 mm 8 mps 745 mmHg 22%
    10:00 +46°C° 0 mm 8 mps 745 mmHg 21%
    11:00 +48°C° 0 mm 8 mps 745 mmHg 20%
    12:00 +49°C° 0 mm 8 mps 744 mmHg 19%
    13:00 +49°C° 0 mm 8 mps 744 mmHg 20%
    14:00 +48°C° 0 mm 8 mps 744 mmHg 21%
    15:00 +47°C° 0 mm 7 mps 743 mmHg 22%
    16:00 +45°C° 0 mm 7 mps 743 mmHg 26%
    17:00 +44°C° 0 mm 6 mps 743 mmHg 30%
    18:00 +41°C° 0 mm 5 mps 743 mmHg 34%
    19:00 +40°C° 0 mm 5 mps 744 mmHg 36%
    20:00 +38°C° 0 mm 4 mps 744 mmHg 39%
    21:00 +37°C° 0 mm 3 mps 745 mmHg 41%
    22:00 +37°C° 0 mm 3 mps 745 mmHg 40%
    23:00 +37°C° 0 mm 2 mps 744 mmHg 38%

    19 August, Sunday

    Time Temperature Precipitation Wind Pressure Humidity
    00:00 +36°C° 0 mm 2 mps 744 mmHg 37%
    01:00 +36°C° 0 mm 2 mps 744 mmHg 35%
    02:00 +37°C° 0 mm 3 mps 744 mmHg 33%
    03:00 +37°C° 0 mm 3 mps 744 mmHg 31%
    04:00 +37°C° 0 mm 4 mps 744 mmHg 31%
    05:00 +37°C° 0 mm 4 mps 745 mmHg 30%
    06:00 +37°C° 0 mm 5 mps 745 mmHg 30%
    07:00 +40°C° 0 mm 5 mps 745 mmHg 28%
    08:00 +42°C° 0 mm 6 mps 746 mmHg 26%
    09:00 +45°C° 0 mm 7 mps 746 mmHg 25%
    10:00 +46°C° 0 mm 7 mps 746 mmHg 23%
    11:00 +47°C° 0 mm 7 mps 745 mmHg 21%
    12:00 +49°C° 0 mm 7 mps 745 mmHg 19%
    13:00 +47°C° 0 mm 7 mps 745 mmHg 20%
    14:00 +48°C° 0 mm 8 mps 744 mmHg 21%
    15:00 +46°C° 0 mm 8 mps 744 mmHg 22%
    16:00 +45°C° 0 mm 7 mps 744 mmHg 24%
    17:00 +44°C° 0 mm 6 mps 744 mmHg 27%
    18:00 +41°C° 0 mm 6 mps 744 mmHg 29%
    19:00 +41°C° 0 mm 5 mps 745 mmHg 31%
    20:00 +40°C° 0 mm 4 mps 745 mmHg 32%
    21:00 +38°C° 0 mm 3 mps 746 mmHg 34%
    22:00 +38°C° 0 mm 3 mps 745 mmHg 32%
    23:00 +37°C° 0 mm 3 mps 745 mmHg 31%

    20 August, Monday

    Time Temperature Precipitation Wind Pressure Humidity
    00:00 +37°C° 0 mm 3 mps 745 mmHg 29%
    01:00 +37°C° 0 mm 3 mps 745 mmHg 29%
    02:00 +37°C° 0 mm 4 mps 745 mmHg 29%
    03:00 +37°C° 0 mm 4 mps 744 mmHg 28%
    04:00 +37°C° 0 mm 4 mps 745 mmHg 31%
    05:00 +37°C° 0 mm 5 mps 745 mmHg 34%
    06:00 +37°C° 0 mm 5 mps 746 mmHg 37%
    07:00 +40°C° 0 mm 6 mps 746 mmHg 33%
    08:00 +42°C° 0 mm 6 mps 746 mmHg 30%
    09:00 +45°C° 0 mm 7 mps 747 mmHg 26%
    10:00 +46°C° 0 mm 7 mps 746 mmHg 23%
    11:00 +47°C° 0 mm 7 mps 746 mmHg 20%
    12:00 +49°C° 0 mm 7 mps 746 mmHg 17%
    13:00 +47°C° 0 mm 7 mps 746 mmHg 18%
    14:00 +48°C° 0 mm 8 mps 746 mmHg 19%
    15:00 +46°C° 0 mm 8 mps 745 mmHg 19%
    16:00 +45°C° 0 mm 8 mps 745 mmHg 21%
    17:00 +44°C° 0 mm 7 mps 746 mmHg 23%
    18:00 +41°C° 0 mm 7 mps 746 mmHg 25%
    19:00 +41°C° 0 mm 5 mps 746 mmHg 26%
    20:00 +40°C° 0 mm 4 mps 746 mmHg 27%
    21:00 +38°C° 0 mm 3 mps 747 mmHg 28%
    22:00 +38°C° 0 mm 3 mps 746 mmHg 27%
    23:00 +38°C° 0 mm 3 mps 746 mmHg 26%

    21 August, Tuesday

    Time Temperature Precipitation Wind Pressure Humidity
    00:00 +37°C° 0 mm 3 mps 746 mmHg 25%
    01:00 +37°C° 0 mm 4 mps 746 mmHg 25%
    02:00 +37°C° 0 mm 4 mps 745 mmHg 26%
    03:00 +37°C° 0 mm 5 mps 745 mmHg 26%
    04:00 +37°C° 0 mm 5 mps 746 mmHg 27%
    05:00 +37°C° 0 mm 5 mps 746 mmHg 28%
    06:00 +38°C° 0 mm 6 mps 746 mmHg 29%
    07:00 +40°C° 0 mm 6 mps 747 mmHg 28%
    08:00 +43°C° 0 mm 7 mps 747 mmHg 27%
    09:00 +45°C° 0 mm 7 mps 747 mmHg 26%
    10:00 +46°C° 0 mm 8 mps 747 mmHg 24%
    11:00 +48°C° 0 mm 8 mps 747 mmHg 22%
    12:00 +49°C° 0 mm 8 mps 747 mmHg 20%
    13:00 +48°C° 0 mm 8 mps 746 mmHg 22%
    14:00 +46°C° 0 mm 8 mps 746 mmHg 24%
    15:00 +46°C° 0 mm 8 mps 746 mmHg 25%
    16:00 +44°C° 0 mm 7 mps 746 mmHg 28%
    17:00 +42°C° 0 mm 6 mps 746 mmHg 30%
    18:00 +41°C° 0 mm 6 mps 746 mmHg 32%
    19:00 +40°C° 0 mm 4 mps 746 mmHg 35%
    20:00 +38°C° 0 mm 3 mps 746 mmHg 37%
    21:00 +37°C° 0 mm 2 mps 746 mmHg 39%
    22:00 +37°C° 0 mm 2 mps 746 mmHg 38%
    23:00 +36°C° 0 mm 2 mps 746 mmHg 37%
    Show more